| time (UTC) | temp F | wind direction | speed MPH | gust MPH | rain 1hr in | rain 24hr in | rain mn in | humidity % | barometer mb |
| 20260906191550 | 92 | 169 | 6.0 | 16.0 | 0.00 | 0.00 | 0.00 | 48 | 1010.4 |
| 20260906191050 | 91 | 232 | 7.0 | 14.0 | 0.00 | 0.00 | 0.00 | 48 | 1010.4 |
| 20260906190546 | 92 | 153 | 1.0 | 14.0 | 0.00 | 0.00 | 0.00 | 48 | 1010.5 |
| 20260906190047 | 92 | 155 | 3.0 | 14.0 | 0.00 | 0.00 | 0.00 | 43 | 1010.6 |
| 20260906185545 | 93 | 175 | 7.0 | 14.0 | 0.00 | 0.00 | 0.00 | 45 | 1010.6 |
| 20260906185044 | 92 | 184 | 8.0 | 17.0 | 0.00 | 0.00 | 0.00 | 45 | 1010.6 |
| 20260906184546 | 91 | 203 | 5.0 | 12.0 | 0.00 | 0.00 | 0.00 | 52 | 1010.6 |
| 20260906184045 | 91 | 213 | 6.0 | 12.0 | 0.00 | 0.00 | 0.00 | 55 | 1010.6 |
| 20260906183544 | 92 | 209 | 8.0 | 16.0 | 0.00 | 0.00 | 0.00 | 54 | 1010.8 |
| 20260906183107 | 92 | 207 | 10.0 | 16.0 | 0.00 | 0.00 | 0.00 | 55 | 1010.8 |
| 20260906182542 | 92 | 197 | 6.0 | 10.0 | 0.00 | 0.00 | 0.00 | 55 | 1010.9 |
| 20260906182044 | 92 | 229 | 4.0 | 12.0 | 0.00 | 0.00 | 0.00 | 51 | 1011.0 |
| 20260906181541 | 92 | 140 | 7.0 | 15.0 | 0.00 | 0.00 | 0.00 | 51 | 1011.2 |
| 20260906181040 | 92 | 183 | 6.0 | 13.0 | 0.00 | 0.00 | 0.00 | 51 | 1011.3 |
| 20260906180539 | 92 | 171 | 5.0 | 10.0 | 0.00 | 0.00 | 0.00 | 53 | 1011.2 |
| 20260906180055 | 92 | 148 | 3.0 | 12.0 | 0.00 | 0.00 | 0.00 | 53 | 1011.4 |
| 20260906175537 | 91 | 223 | 6.0 | 10.0 | 0.00 | 0.00 | 0.00 | 57 | 1011.4 |
| 20260906175039 | 90 | 183 | 6.0 | 12.0 | 0.00 | 0.00 | 0.00 | 59 | 1011.5 |
| 20260906174538 | 89 | 202 | 5.0 | 11.0 | 0.00 | 0.00 | 0.00 | 60 | 1011.7 |
| 20260906174036 | 89 | 214 | 8.0 | 11.0 | 0.00 | 0.00 | 0.00 | 59 | 1011.7 |
| 20260906173536 | 90 | 258 | 6.0 | 9.0 | 0.00 | 0.00 | 0.00 | 58 | 1011.7 |
| 20260906173036 | 90 | 217 | 5.0 | 9.0 | 0.00 | 0.00 | 0.00 | 57 | 1011.8 |
| 20260906172536 | 90 | 236 | 3.0 | 8.0 | 0.00 | 0.00 | 0.00 | 59 | 1011.9 |
| 20260906172035 | 89 | 169 | 2.0 | 16.0 | 0.00 | 0.00 | 0.00 | 59 | 1011.8 |
| 20260906171536 | 88 | 167 | 9.0 | 16.0 | 0.00 | 0.00 | 0.00 | 61 | 1011.9 |
| 20260906171031 | 88 | 213 | 5.0 | 9.0 | 0.00 | 0.00 | 0.00 | 61 | 1012.1 |
| 20260906170531 | 88 | 257 | 5.0 | 11.0 | 0.00 | 0.00 | 0.00 | 61 | 1012.2 |
| 20260906170036 | 88 | 213 | 4.0 | 10.0 | 0.00 | 0.00 | 0.00 | 61 | 1012.1 |
| 20260906165529 | 87 | 240 | 3.0 | 10.0 | 0.00 | 0.00 | 0.00 | 62 | 1012.1 |
| 20260906165029 | 87 | 257 | 6.0 | 10.0 | 0.00 | 0.00 | 0.00 | 62 | 1012.1 |
| 20260906164528 | 87 | 248 | 6.0 | 11.0 | 0.00 | 0.00 | 0.00 | 61 | 1012.2 |
| 20260906164028 | 87 | 238 | 5.0 | 11.0 | 0.00 | 0.00 | 0.00 | 62 | 1012.1 |
| 20260906163529 | 86 | 227 | 7.0 | 10.0 | 0.00 | 0.00 | 0.00 | 63 | 1012.0 |
| 20260906163025 | 86 | 242 | 5.0 | 9.0 | 0.00 | 0.00 | 0.00 | 64 | 1012.1 |
| 20260906162527 | 86 | 219 | 3.0 | 9.0 | 0.00 | 0.00 | 0.00 | 64 | 1012.2 |
| 20260906162022 | 85 | 209 | 5.0 | 11.0 | 0.00 | 0.00 | 0.00 | 66 | 1012.1 |
| 20260906161521 | 85 | 256 | 6.0 | 10.0 | 0.00 | 0.00 | 0.00 | 65 | 1012.1 |
| 20260906161020 | 84 | 178 | 2.0 | 12.0 | 0.00 | 0.00 | 0.00 | 67 | 1012.1 |
| 20260906160520 | 84 | 208 | 8.0 | 12.0 | 0.00 | 0.00 | 0.00 | 66 | 1012.1 |
| 20260906160024 | 84 | 181 | 3.0 | 11.0 | 0.00 | 0.00 | 0.00 | 66 | 1012.2 |
| 20260906155519 | 84 | 226 | 6.0 | 11.0 | 0.00 | 0.00 | 0.00 | 66 | 1011.9 |
| 20260906155020 | 83 | 173 | 2.0 | 10.0 | 0.00 | 0.00 | 0.00 | 68 | 1011.9 |
| 20260906154518 | 83 | 233 | 5.0 | 10.0 | 0.00 | 0.00 | 0.00 | 69 | 1011.9 |
| 20260906154018 | 83 | 217 | 6.0 | 9.0 | 0.00 | 0.00 | 0.00 | 69 | 1012.0 |
| 20260906153518 | 83 | 173 | 4.0 | 8.0 | 0.00 | 0.00 | 0.00 | 69 | 1011.9 |
| 20260906153017 | 83 | 213 | 6.0 | 8.0 | 0.00 | 0.00 | 0.00 | 68 | 1011.8 |
| 20260906152516 | 83 | 164 | 2.0 | 7.0 | 0.00 | 0.00 | 0.00 | 70 | 1011.8 |
| 20260906152015 | 83 | 155 | 3.0 | 8.0 | 0.00 | 0.00 | 0.00 | 72 | 1011.8 |
| 20260906151524 | 83 | 159 | 3.0 | 7.0 | 0.00 | 0.00 | 0.00 | 74 | 1011.9 |
| 20260906151016 | 82 | 180 | 4.0 | 7.0 | 0.00 | 0.00 | 0.00 | 74 | 1011.8 |
| 20260906150512 | 81 | 160 | 3.0 | 7.0 | 0.00 | 0.00 | 0.00 | 75 | 1011.8 |
| 20260906150010 | 81 | 198 | 2.0 | 5.0 | 0.00 | 0.00 | 0.00 | 77 | 1011.8 |
| 20260906145508 | 80 | 194 | 2.0 | 4.0 | 0.00 | 0.00 | 0.00 | 77 | 1011.8 |
| 20260906145008 | 80 | 233 | 1.0 | 5.0 | 0.00 | 0.00 | 0.00 | 78 | 1011.8 |
| 20260906144506 | 80 | 180 | 3.0 | 5.0 | 0.00 | 0.00 | 0.00 | 79 | 1011.7 |
| 20260906144007 | 79 | 242 | 0.0 | 5.0 | 0.00 | 0.00 | 0.00 | 80 | 1011.7 |
| 20260906143509 | 78 | 147 | 2.0 | 4.0 | 0.00 | 0.00 | 0.00 | 82 | 1011.7 |
| 20260906143006 | 78 | 215 | 2.0 | 5.0 | 0.00 | 0.00 | 0.00 | 82 | 1011.7 |
| 20260906142508 | 78 | 198 | 2.0 | 5.0 | 0.00 | 0.00 | 0.00 | 83 | 1011.8 |
| 20260906142006 | 78 | 182 | 2.0 | 5.0 | 0.00 | 0.00 | 0.00 | 84 | 1011.7 |
| 20260906141506 | 78 | 180 | 4.0 | 7.0 | 0.00 | 0.00 | 0.00 | 84 | 1011.7 |
| 20260906141009 | 77 | 188 | 2.0 | 7.0 | 0.00 | 0.00 | 0.00 | 85 | 1011.7 |
| 20260906140504 | 77 | 180 | 4.0 | 8.0 | 0.00 | 0.00 | 0.00 | 85 | 1011.8 |
| 20260906140007 | 76 | 180 | 5.0 | 7.0 | 0.00 | 0.00 | 0.00 | 86 | 1011.7 |
| 20260906135505 | 76 | 174 | 5.0 | 10.0 | 0.00 | 0.00 | 0.00 | 87 | 1011.6 |
| 20260906135002 | 76 | 190 | 7.0 | 10.0 | 0.00 | 0.00 | 0.00 | 87 | 1011.6 |
| 20260906134502 | 75 | 211 | 3.0 | 9.0 | 0.00 | 0.00 | 0.00 | 88 | 1011.5 |
| 20260906134002 | 75 | 185 | 2.0 | 7.0 | 0.00 | 0.00 | 0.00 | 89 | 1011.4 |
| 20260906133501 | 74 | 149 | 3.0 | 6.0 | 0.00 | 0.00 | 0.00 | 89 | 1011.4 |
| 20260906133107 | 73 | 184 | 3.0 | 6.0 | 0.00 | 0.00 | 0.00 | 90 | 1011.3 |
| 20260906132601 | 73 | 186 | 4.0 | 6.0 | 0.00 | 0.00 | 0.00 | 91 | 1011.3 |
| 20260906132500 | 73 | 187 | 4.0 | 6.0 | 0.00 | 0.00 | 0.00 | 91 | 1011.3 |
| 20260906132058 | 72 | 205 | 0.0 | 3.0 | 0.00 | 0.00 | 0.00 | 91 | 1011.3 |
| 20260906131600 | 72 | 205 | 1.0 | 3.0 | 0.00 | 0.00 | 0.00 | 92 | 1011.1 |
| 20260906131057 | 71 | 205 | 0.0 | 2.0 | 0.00 | 0.00 | 0.00 | 92 | 1010.9 |
| 20260906130556 | 71 | 205 | 0.0 | 2.0 | 0.00 | 0.00 | 0.00 | 91 | 1010.9 |
| 20260906130106 | 71 | 205 | 1.0 | 2.0 | 0.00 | 0.00 | 0.00 | 92 | 1010.9 |
| 20260906125600 | 71 | 205 | 1.0 | 2.0 | 0.00 | 0.00 | 0.00 | 92 | 1010.8 |
| 20260906125056 | 71 | 189 | 1.0 | 2.0 | 0.00 | 0.00 | 0.00 | 92 | 1010.9 |
| 20260906124556 | 71 | 176 | 1.0 | 3.0 | 0.00 | 0.00 | 0.00 | 92 | 1010.8 |
| 20260906124059 | 71 | 176 | 2.0 | 3.0 | 0.00 | 0.00 | 0.00 | 92 | 1010.8 |
| 20260906123558 | 71 | 178 | 2.0 | 3.0 | 0.00 | 0.00 | 0.00 | 92 | 1010.7 |
| 20260906123055 | 71 | 188 | 2.0 | 4.0 | 0.00 | 0.00 | 0.00 | 91 | 1010.7 |
| 20260906122555 | 71 | 188 | 3.0 | 5.0 | 0.00 | 0.00 | 0.00 | 92 | 1010.6 |
| 20260906122054 | 71 | 178 | 3.0 | 4.0 | 0.00 | 0.00 | 0.00 | 92 | 1010.5 |
| 20260906121557 | 71 | 184 | 2.0 | 4.0 | 0.00 | 0.00 | 0.00 | 91 | 1010.5 |
| 20260906121054 | 71 | 161 | 1.0 | 2.0 | 0.00 | 0.00 | 0.00 | 91 | 1010.5 |
| 20260906120551 | 71 | 161 | 1.0 | 2.0 | 0.00 | 0.00 | 0.00 | 90 | 1010.4 |
| 20260906120051 | 71 | 158 | 0.0 | 2.0 | 0.00 | 0.00 | 0.00 | 90 | 1010.3 |
| 20260906115552 | 71 | 158 | 0.0 | 0.0 | 0.00 | 0.00 | 0.00 | 90 | 1010.4 |
| 20260906115050 | 71 | 158 | 0.0 | 3.0 | 0.00 | 0.00 | 0.00 | 90 | 1010.3 |
| 20260906114558 | 71 | 158 | 0.0 | 3.0 | 0.00 | 0.00 | 0.00 | 90 | 1010.1 |
| 20260906114049 | 71 | 160 | 2.0 | 3.0 | 0.00 | 0.00 | 0.00 | 89 | 1010.0 |
| 20260906113549 | 71 | 122 | 2.0 | 2.0 | 0.00 | 0.00 | 0.00 | 89 | 1009.9 |
| 20260906113056 | 71 | 122 | 1.0 | 2.0 | 0.00 | 0.00 | 0.00 | 89 | 1010.0 |
| 20260906112522 | 71 | 122 | 1.0 | 2.0 | 0.00 | 0.00 | 0.00 | 89 | 1009.9 |
| 20260906112022 | 71 | 122 | 1.0 | 2.0 | 0.00 | 0.00 | 0.00 | 89 | 1009.8 |
| 20260906111523 | 71 | 122 | 1.0 | 3.0 | 0.00 | 0.00 | 0.00 | 90 | 1009.7 |
| 20260906111021 | 71 | 122 | 2.0 | 3.0 | 0.00 | 0.00 | 0.00 | 90 | 1009.8 |
| 20260906110521 | 71 | 122 | 2.0 | 4.0 | 0.00 | 0.00 | 0.00 | 90 | 1009.8 |
| 20260906110021 | 71 | 123 | 2.0 | 5.0 | 0.00 | 0.00 | 0.00 | 90 | 1009.7 |
| 20260906105521 | 71 | 82 | 2.0 | 5.0 | 0.00 | 0.00 | 0.00 | 90 | 1009.7 |
| 20260906105024 | 71 | 87 | 3.0 | 5.0 | 0.00 | 0.00 | 0.00 | 90 | 1009.5 |
| 20260906104527 | 71 | 82 | 4.0 | 5.0 | 0.00 | 0.00 | 0.00 | 90 | 1009.4 |
| 20260906104020 | 71 | 74 | 3.0 | 5.0 | 0.00 | 0.00 | 0.00 | 90 | 1009.3 |
| 20260906103519 | 71 | 67 | 3.0 | 4.0 | 0.00 | 0.00 | 0.00 | 89 | 1009.4 |
| 20260906103019 | 71 | 57 | 3.0 | 4.0 | 0.00 | 0.00 | 0.00 | 89 | 1009.3 |
| 20260906102523 | 71 | 36 | 3.0 | 4.0 | 0.00 | 0.00 | 0.00 | 89 | 1009.2 |
| 20260906102018 | 71 | 42 | 3.0 | 4.0 | 0.00 | 0.00 | 0.00 | 89 | 1009.3 |
| 20260906101518 | 71 | 42 | 3.0 | 4.0 | 0.00 | 0.00 | 0.00 | 89 | 1009.2 |
| 20260906101017 | 72 | 55 | 4.0 | 4.0 | 0.00 | 0.00 | 0.00 | 88 | 1009.1 |
| 20260906100517 | 72 | 49 | 3.0 | 4.0 | 0.00 | 0.00 | 0.00 | 88 | 1009.2 |
| 20260906100018 | 72 | 49 | 3.0 | 4.0 | 0.00 | 0.00 | 0.00 | 88 | 1009.3 |
| 20260906095514 | 72 | 41 | 2.0 | 4.0 | 0.00 | 0.00 | 0.00 | 87 | 1009.3 |
| 20260906095014 | 72 | 45 | 2.0 | 3.0 | 0.00 | 0.00 | 0.00 | 87 | 1009.3 |
| 20260906094517 | 73 | 64 | 2.0 | 3.0 | 0.00 | 0.00 | 0.00 | 87 | 1009.3 |
| 20260906094013 | 73 | 121 | 2.0 | 2.0 | 0.00 | 0.00 | 0.00 | 87 | 1009.2 |
| 20260906093514 | 73 | 121 | 1.0 | 2.0 | 0.00 | 0.00 | 0.00 | 87 | 1009.2 |
| 20260906093012 | 73 | 121 | 1.0 | 2.0 | 0.00 | 0.00 | 0.00 | 87 | 1009.3 |
| 20260906092512 | 73 | 126 | 1.0 | 1.0 | 0.00 | 0.00 | 0.00 | 87 | 1009.3 |
| 20260906092013 | 73 | 126 | 0.0 | 2.0 | 0.00 | 0.00 | 0.00 | 86 | 1009.3 |
| 20260906091524 | 73 | 126 | 1.0 | 3.0 | 0.00 | 0.00 | 0.00 | 86 | 1009.3 |
| 20260906091009 | 73 | 126 | 0.0 | 3.0 | 0.00 | 0.00 | 0.00 | 86 | 1009.3 |
| 20260906090509 | 73 | 153 | 2.0 | 3.0 | 0.00 | 0.00 | 0.00 | 85 | 1009.5 |
| 20260906090009 | 73 | 153 | 2.0 | 3.0 | 0.00 | 0.00 | 0.00 | 85 | 1009.5 |
| 20260906085510 | 74 | 169 | 2.0 | 5.0 | 0.00 | 0.00 | 0.00 | 85 | 1009.3 |
| 20260906085007 | 74 | 169 | 2.0 | 5.0 | 0.00 | 0.00 | 0.00 | 84 | 1009.3 |
| 20260906084506 | 74 | 173 | 2.0 | 4.0 | 0.00 | 0.00 | 0.00 | 84 | 1009.3 |
| 20260906084009 | 74 | 199 | 2.0 | 5.0 | 0.00 | 0.00 | 0.00 | 83 | 1009.3 |
| 20260906083505 | 74 | 173 | 2.0 | 5.0 | 0.00 | 0.00 | 0.00 | 83 | 1009.4 |
| 20260906083011 | 74 | 171 | 1.0 | 3.0 | 0.00 | 0.00 | 0.00 | 83 | 1009.6 |
| 20260906082505 | 75 | 195 | 1.0 | 4.0 | 0.00 | 0.00 | 0.00 | 82 | 1009.6 |
| 20260906082003 | 75 | 180 | 2.0 | 5.0 | 0.00 | 0.00 | 0.00 | 82 | 1009.6 |
| 20260906081506 | 75 | 188 | 2.0 | 5.0 | 0.00 | 0.00 | 0.00 | 82 | 1009.7 |
| 20260906081002 | 75 | 180 | 3.0 | 5.0 | 0.00 | 0.00 | 0.00 | 81 | 1009.8 |
| 20260906080600 | 75 | 193 | 2.0 | 5.0 | 0.00 | 0.00 | 0.00 | 81 | 1009.9 |
| 20260906080107 | 76 | 205 | 2.0 | 5.0 | 0.00 | 0.00 | 0.00 | 81 | 1010.0 |
| 20260906075558 | 76 | 196 | 3.0 | 7.0 | 0.00 | 0.00 | 0.00 | 80 | 1010.1 |
| 20260906075058 | 76 | 202 | 3.0 | 11.0 | 0.00 | 0.00 | 0.00 | 80 | 1010.1 |
| 20260906074611 | 76 | 209 | 6.0 | 12.0 | 0.00 | 0.00 | 0.00 | 80 | 1010.0 |
| 20260906074056 | 76 | 196 | 7.0 | 12.0 | 0.00 | 0.00 | 0.00 | 80 | 1010.0 |
| 20260906073557 | 76 | 229 | 6.0 | 12.0 | 0.00 | 0.00 | 0.00 | 80 | 1010.1 |
| 20260906073059 | 76 | 188 | 7.0 | 12.0 | 0.00 | 0.00 | 0.00 | 80 | 1010.2 |
| 20260906072554 | 76 | 173 | 7.0 | 12.0 | 0.00 | 0.00 | 0.00 | 80 | 1010.2 |
| 20260906072056 | 76 | 184 | 6.0 | 12.0 | 0.00 | 0.00 | 0.00 | 79 | 1010.3 |
| 20260906071553 | 76 | 167 | 7.0 | 11.0 | 0.00 | 0.00 | 0.00 | 79 | 1010.3 |
| 20260906071052 | 76 | 207 | 5.0 | 11.0 | 0.00 | 0.00 | 0.00 | 79 | 1010.3 |
| 20260906070550 | 77 | 229 | 7.0 | 11.0 | 0.00 | 0.00 | 0.00 | 79 | 1010.3 |
| 20260906070149 | 77 | 190 | 6.0 | 11.0 | 0.00 | 0.00 | 0.00 | 79 | 1010.4 |
| 20260906065548 | 77 | 171 | 4.0 | 10.0 | 0.00 | 0.00 | 0.00 | 79 | 1010.4 |
| 20260906065048 | 77 | 172 | 5.0 | 10.0 | 0.00 | 0.00 | 0.00 | 78 | 1010.5 |
| 20260906064546 | 77 | 193 | 6.0 | 10.0 | 0.00 | 0.00 | 0.00 | 78 | 1010.6 |
| 20260906064045 | 77 | 191 | 4.0 | 10.0 | 0.00 | 0.00 | 0.00 | 78 | 1010.7 |
| 20260906063544 | 78 | 198 | 6.0 | 12.0 | 0.00 | 0.00 | 0.00 | 78 | 1010.7 |
| 20260906063045 | 78 | 191 | 7.0 | 12.0 | 0.00 | 0.00 | 0.00 | 78 | 1010.7 |
| 20260906062544 | 78 | 180 | 5.0 | 12.0 | 0.00 | 0.00 | 0.00 | 77 | 1010.8 |
| 20260906062046 | 78 | 163 | 8.0 | 14.0 | 0.00 | 0.00 | 0.00 | 77 | 1011.0 |
| 20260906061541 | 78 | 170 | 8.0 | 14.0 | 0.00 | 0.00 | 0.00 | 77 | 1010.9 |
| 20260906061041 | 78 | 205 | 6.0 | 15.0 | 0.00 | 0.00 | 0.00 | 77 | 1010.8 |
| 20260906060540 | 78 | 176 | 7.0 | 15.0 | 0.00 | 0.00 | 0.00 | 77 | 1010.9 |
| 20260906060039 | 78 | 194 | 7.0 | 11.0 | 0.00 | 0.00 | 0.00 | 77 | 1010.9 |
| 20260906055538 | 78 | 180 | 5.0 | 10.0 | 0.00 | 0.00 | 0.00 | 77 | 1010.9 |
| 20260906055037 | 78 | 202 | 4.0 | 10.0 | 0.00 | 0.00 | 0.00 | 76 | 1010.9 |
| 20260906054537 | 78 | 191 | 5.0 | 10.0 | 0.00 | 0.00 | 0.00 | 76 | 1010.8 |
| 20260906054035 | 78 | 190 | 6.0 | 10.0 | 0.00 | 0.00 | 0.00 | 76 | 1010.8 |
| 20260906053534 | 79 | 190 | 5.0 | 10.0 | 0.00 | 0.00 | 0.00 | 76 | 1010.7 |
| 20260906053036 | 79 | 196 | 6.0 | 10.0 | 0.00 | 0.00 | 0.00 | 75 | 1010.6 |
| 20260906052532 | 79 | 173 | 6.0 | 10.0 | 0.00 | 0.00 | 0.00 | 75 | 1010.8 |
| 20260906052032 | 79 | 182 | 5.0 | 10.0 | 0.00 | 0.00 | 0.00 | 75 | 1010.9 |
| 20260906051531 | 79 | 188 | 5.0 | 11.0 | 0.00 | 0.00 | 0.00 | 74 | 1010.9 |
| 20260906051030 | 79 | 194 | 4.0 | 11.0 | 0.00 | 0.00 | 0.00 | 74 | 1010.9 |
| 20260906050529 | 80 | 173 | 5.0 | 14.0 | 0.00 | 0.00 | 0.00 | 73 | 1010.8 |
| 20260906050033 | 80 | 194 | 7.0 | 14.0 | 0.00 | 0.00 | 0.00 | 73 | 1010.7 |
| 20260906045527 | 80 | 186 | 5.0 | 12.0 | 0.00 | 0.00 | 0.00 | 72 | 1010.8 |
| 20260906045031 | 80 | 180 | 7.0 | 14.0 | 0.00 | 0.00 | 0.00 | 72 | 1010.6 |
| 20260906044535 | 80 | 190 | 6.0 | 14.0 | 0.00 | 0.00 | 0.00 | 71 | 1010.6 |
| 20260906044031 | 80 | 176 | 7.0 | 16.0 | 0.00 | 0.00 | 0.00 | 71 | 1010.6 |
| 20260906043530 | 81 | 155 | 9.0 | 16.0 | 0.00 | 0.00 | 0.00 | 71 | 1010.8 |
| 20260906043027 | 81 | 210 | 8.0 | 15.0 | 0.00 | 0.00 | 0.00 | 70 | 1010.9 |
| 20260906042526 | 81 | 169 | 8.0 | 16.0 | 0.00 | 0.00 | 0.00 | 69 | 1010.9 |
| 20260906042027 | 81 | 184 | 9.0 | 15.0 | 0.00 | 0.00 | 0.00 | 68 | 1010.8 |
| 20260906041531 | 81 | 184 | 9.0 | 16.0 | 0.00 | 0.00 | 0.00 | 67 | 1010.8 |
| 20260906041026 | 81 | 173 | 11.0 | 18.0 | 0.00 | 0.00 | 0.00 | 66 | 1010.8 |
| 20260906040526 | 82 | 147 | 10.0 | 17.0 | 0.00 | 0.00 | 0.00 | 65 | 1010.6 |
| 20260906040029 | 81 | 178 | 11.0 | 17.0 | 0.00 | 0.00 | 0.00 | 65 | 1010.6 |
| 20260906035525 | 81 | 145 | 6.0 | 13.0 | 0.00 | 0.00 | 0.00 | 65 | 1010.5 |
| 20260906035026 | 81 | 161 | 5.0 | 8.0 | 0.00 | 0.00 | 0.00 | 65 | 1010.5 |
| 20260906034528 | 81 | 161 | 2.0 | 4.0 | 0.00 | 0.00 | 0.00 | 65 | 1010.5 |
| 20260906034026 | 81 | 160 | 2.0 | 6.0 | 0.00 | 0.00 | 0.00 | 65 | 1010.4 |
| 20260906033525 | 81 | 162 | 3.0 | 5.0 | 0.00 | 0.00 | 0.00 | 65 | 1010.4 |
| 20260906033038 | 81 | 181 | 2.0 | 6.0 | 0.00 | 0.00 | 0.00 | 65 | 1010.3 |
| 20260906032525 | 81 | 155 | 1.0 | 4.0 | 0.00 | 0.00 | 0.00 | 65 | 1010.3 |
| 20260906032025 | 82 | 139 | 2.0 | 5.0 | 0.00 | 0.00 | 0.00 | 65 | 1010.2 |
| 20260906031528 | 82 | 157 | 3.0 | 8.0 | 0.00 | 0.00 | 0.00 | 65 | 1010.2 |
| 20260906031025 | 82 | 148 | 3.0 | 8.0 | 0.00 | 0.00 | 0.00 | 65 | 1010.2 |
| 20260906030525 | 82 | 142 | 4.0 | 8.0 | 0.00 | 0.00 | 0.00 | 65 | 1010.2 |
| 20260906030024 | 82 | 128 | 4.0 | 8.0 | 0.00 | 0.00 | 0.00 | 65 | 1010.1 |
| 20260906025524 | 82 | 149 | 4.0 | 8.0 | 0.00 | 0.00 | 0.00 | 65 | 1009.8 |
| 20260906025027 | 82 | 134 | 4.0 | 8.0 | 0.00 | 0.00 | 0.00 | 65 | 1009.8 |
| 20260906024526 | 82 | 128 | 5.0 | 8.0 | 0.00 | 0.00 | 0.00 | 65 | 1009.7 |
| 20260906024026 | 82 | 135 | 4.0 | 7.0 | 0.00 | 0.00 | 0.00 | 65 | 1009.7 |
| 20260906023524 | 82 | 132 | 4.0 | 7.0 | 0.00 | 0.00 | 0.00 | 65 | 1009.6 |
| 20260906023025 | 82 | 137 | 3.0 | 7.0 | 0.00 | 0.00 | 0.00 | 65 | 1009.6 |
| 20260906022528 | 82 | 130 | 3.0 | 7.0 | 0.00 | 0.00 | 0.00 | 64 | 1009.4 |
| 20260906022024 | 82 | 134 | 4.0 | 7.0 | 0.00 | 0.00 | 0.00 | 64 | 1009.4 |
| 20260906021522 | 82 | 139 | 3.0 | 7.0 | 0.00 | 0.00 | 0.00 | 64 | 1009.4 |
| 20260906021022 | 82 | 121 | 3.0 | 7.0 | 0.00 | 0.00 | 0.00 | 63 | 1009.1 |
| 20260906020522 | 83 | 129 | 3.0 | 8.0 | 0.00 | 0.00 | 0.00 | 63 | 1009.0 |
| 20260906020022 | 83 | 128 | 4.0 | 8.0 | 0.00 | 0.00 | 0.00 | 62 | 1009.0 |
| 20260906015523 | 83 | 111 | 2.0 | 8.0 | 0.00 | 0.00 | 0.00 | 61 | 1008.9 |
| 20260906015021 | 83 | 121 | 3.0 | 7.0 | 0.00 | 0.00 | 0.00 | 61 | 1008.8 |
| 20260906014522 | 83 | 117 | 4.0 | 7.0 | 0.00 | 0.00 | 0.00 | 60 | 1008.7 |
| 20260906014021 | 83 | 115 | 3.0 | 6.0 | 0.00 | 0.00 | 0.00 | 59 | 1008.8 |
| 20260906013521 | 84 | 118 | 2.0 | 6.0 | 0.00 | 0.00 | 0.00 | 59 | 1008.7 |
| 20260906013022 | 84 | 121 | 3.0 | 6.0 | 0.00 | 0.00 | 0.00 | 59 | 1008.6 |
| 20260906012524 | 84 | 122 | 2.0 | 4.0 | 0.00 | 0.00 | 0.00 | 58 | 1008.5 |
| 20260906012020 | 84 | 128 | 2.0 | 6.0 | 0.00 | 0.00 | 0.00 | 58 | 1008.5 |
| 20260906011528 | 85 | 127 | 2.0 | 6.0 | 0.00 | 0.00 | 0.00 | 57 | 1008.5 |
| 20260906011020 | 85 | 147 | 2.0 | 4.0 | 0.00 | 0.00 | 0.00 | 57 | 1008.4 |
| 20260906010521 | 85 | 146 | 2.0 | 6.0 | 0.00 | 0.00 | 0.00 | 56 | 1008.4 |
| 20260906010020 | 85 | 136 | 2.0 | 6.0 | 0.00 | 0.00 | 0.00 | 56 | 1008.4 |
| 20260906005519 | 86 | 145 | 2.0 | 7.0 | 0.00 | 0.00 | 0.00 | 56 | 1008.3 |
| 20260906005022 | 86 | 144 | 3.0 | 7.0 | 0.00 | 0.00 | 0.00 | 55 | 1008.3 |
| 20260906004520 | 86 | 131 | 2.0 | 4.0 | 0.00 | 0.00 | 0.00 | 55 | 1008.3 |
| 20260906004021 | 87 | 128 | 2.0 | 4.0 | 0.00 | 0.00 | 0.00 | 54 | 1008.5 |
| 20260906003519 | 87 | 148 | 2.0 | 9.0 | 0.00 | 0.00 | 0.00 | 54 | 1008.5 |
| 20260906003018 | 88 | 142 | 3.0 | 9.0 | 0.00 | 0.00 | 0.00 | 53 | 1008.4 |
| 20260906002517 | 88 | 123 | 2.0 | 8.0 | 0.00 | 0.00 | 0.00 | 53 | 1008.4 |
| 20260906002019 | 88 | 152 | 5.0 | 8.0 | 0.00 | 0.00 | 0.00 | 53 | 1008.5 |
| 20260906001517 | 88 | 144 | 2.0 | 7.0 | 0.00 | 0.00 | 0.00 | 54 | 1008.4 |
| 20260906001017 | 89 | 129 | 4.0 | 8.0 | 0.00 | 0.00 | 0.00 | 53 | 1008.3 |
| 20260906000516 | 88 | 168 | 2.0 | 8.0 | 0.00 | 0.00 | 0.00 | 55 | 1008.3 |
| 20260906000016 | 88 | 140 | 1.0 | 7.0 | 0.00 | 0.00 | 0.00 | 62 | 1008.2 |
| 20260905235516 | 88 | 346 | 0.0 | 2.0 | 0.00 | 0.00 | 0.00 | 64 | 1008.2 |
| 20260905235020 | 87 | 186 | 0.0 | 4.0 | 0.00 | 0.00 | 0.00 | 64 | 1008.2 |
| 20260905234516 | 87 | 319 | 2.0 | 6.0 | 0.00 | 0.00 | 0.00 | 66 | 1008.2 |
| 20260905234015 | 86 | 346 | 0.0 | 6.0 | 0.00 | 0.00 | 0.00 | 67 | 1008.2 |
| 20260905233515 | 86 | 250 | 3.0 | 6.0 | 0.00 | 0.00 | 0.00 | 67 | 1008.2 |
| 20260905233015 | 87 | 284 | 2.0 | 6.0 | 0.00 | 0.00 | 0.00 | 67 | 1008.2 |
| 20260905232515 | 87 | 304 | 0.0 | 10.0 | 0.00 | 0.00 | 0.00 | 66 | 1008.1 |
| 20260905232014 | 89 | 310 | 3.0 | 10.0 | 0.00 | 0.00 | 0.00 | 64 | 1008.1 |
| 20260905231514 | 91 | 9 | 4.0 | 8.0 | 0.00 | 0.00 | 0.00 | 61 | 1008.1 |
| 20260905231013 | 92 | 50 | 2.0 | 8.0 | 0.00 | 0.00 | 0.00 | 51 | 1008.1 |
| 20260905230513 | 91 | 48 | 4.0 | 14.0 | 0.00 | 0.00 | 0.00 | 52 | 1008.2 |
| 20260905230012 | 91 | 173 | 6.0 | 13.0 | 0.00 | 0.00 | 0.00 | 53 | 1008.2 |
| 20260905225512 | 90 | 128 | 5.0 | 12.0 | 0.00 | 0.00 | 0.00 | 58 | 1008.3 |
| 20260905225012 | 89 | 172 | 1.0 | 12.0 | 0.00 | 0.00 | 0.00 | 59 | 1008.3 |
| 20260905224512 | 89 | 228 | 1.0 | 12.0 | 0.00 | 0.00 | 0.00 | 61 | 1008.4 |
| 20260905224014 | 90 | 210 | 5.0 | 12.0 | 0.00 | 0.00 | 0.00 | 60 | 1008.3 |
| 20260905223511 | 88 | 129 | 8.0 | 12.0 | 0.00 | 0.00 | 0.00 | 59 | 1008.3 |
| 20260905223011 | 87 | 169 | 4.0 | 10.0 | 0.00 | 0.00 | 0.00 | 63 | 1008.3 |
| 20260905222511 | 86 | 129 | 2.0 | 7.0 | 0.00 | 0.00 | 0.00 | 66 | 1008.2 |
| 20260905222010 | 85 | 136 | 0.0 | 2.0 | 0.00 | 0.00 | 0.00 | 69 | 1008.1 |
| 20260905221516 | 84 | 340 | 0.0 | 5.0 | 0.00 | 0.00 | 0.00 | 70 | 1008.2 |
| 20260905221014 | 84 | 325 | 2.0 | 6.0 | 0.00 | 0.00 | 0.00 | 71 | 1008.2 |
| 20260905220510 | 85 | 350 | 4.0 | 6.0 | 0.00 | 0.00 | 0.00 | 70 | 1008.3 |
| 20260905220010 | 85 | 9 | 3.0 | 5.0 | 0.00 | 0.00 | 0.00 | 71 | 1008.3 |
| 20260905215509 | 85 | 355 | 3.0 | 5.0 | 0.00 | 0.00 | 0.00 | 68 | 1008.3 |
| 20260905215008 | 85 | 340 | 2.0 | 4.0 | 0.00 | 0.00 | 0.00 | 69 | 1008.2 |
| 20260905214509 | 85 | 325 | 2.0 | 4.0 | 0.00 | 0.00 | 0.00 | 69 | 1008.1 |
| 20260905214009 | 84 | 244 | 1.0 | 3.0 | 0.00 | 0.00 | 0.00 | 70 | 1008.2 |
| 20260905213509 | 84 | 360 | 1.0 | 5.0 | 0.00 | 0.00 | 0.00 | 70 | 1008.1 |
| 20260905213008 | 84 | 350 | 2.0 | 6.0 | 0.00 | 0.00 | 0.00 | 71 | 1008.2 |
| 20260905212507 | 83 | 9 | 3.0 | 6.0 | 0.00 | 0.00 | 0.00 | 75 | 1008.3 |
| 20260905212008 | 82 | 80 | 2.0 | 8.0 | 0.00 | 0.00 | 0.00 | 76 | 1008.4 |
| 20260905211505 | 81 | 320 | 3.0 | 17.0 | 0.00 | 0.00 | 0.00 | 76 | 1008.4 |
| 20260905211005 | 81 | 9 | 11.0 | 17.0 | 0.00 | 0.00 | 0.00 | 77 | 1008.5 |
| 20260905210503 | 82 | 355 | 9.0 | 12.0 | 0.00 | 0.00 | 0.00 | 75 | 1008.7 |
| 20260905210003 | 81 | 355 | 9.0 | 16.0 | 0.00 | 0.00 | 0.00 | 75 | 1008.8 |
| 20260905205503 | 82 | 334 | 9.0 | 16.0 | 0.00 | 0.00 | 0.00 | 73 | 1008.8 |
| 20260905205003 | 83 | 331 | 12.0 | 16.0 | 0.00 | 0.00 | 0.00 | 71 | 1008.9 |
| 20260905204504 | 85 | 334 | 10.0 | 14.0 | 0.00 | 0.00 | 0.00 | 68 | 1008.9 |
| 20260905204001 | 88 | 355 | 5.0 | 10.0 | 0.00 | 0.00 | 0.00 | 65 | 1009.0 |
| 20260905203502 | 89 | 321 | 2.0 | 8.0 | 0.00 | 0.00 | 0.00 | 60 | 1009.0 |
| 20260905203118 | 89 | 153 | 1.0 | 10.0 | 0.00 | 0.00 | 0.00 | 58 | 1009.0 |
| 20260905202601 | 89 | 176 | 4.0 | 10.0 | 0.00 | 0.00 | 0.00 | 59 | 1009.1 |
| 20260905202100 | 89 | 163 | 4.0 | 12.0 | 0.00 | 0.00 | 0.00 | 58 | 1009.0 |
| 20260905201601 | 90 | 199 | 5.0 | 16.0 | 0.00 | 0.00 | 0.00 | 59 | 1009.1 |
| 20260905201059 | 90 | 181 | 8.0 | 14.0 | 0.00 | 0.00 | 0.00 | 58 | 1009.2 |
| 20260905200600 | 91 | 184 | 8.0 | 12.0 | 0.00 | 0.00 | 0.00 | 58 | 1009.2 |
| 20260905195558 | 92 | 207 | 8.0 | 20.0 | 0.00 | 0.00 | 0.00 | 56 | 1009.2 |
| 20260905195058 | 93 | 223 | 8.0 | 14.0 | 0.00 | 0.00 | 0.00 | 55 | 1009.2 |
| 20260905194557 | 93 | 170 | 5.0 | 14.0 | 0.00 | 0.00 | 0.00 | 57 | 1009.4 |
| 20260905194057 | 92 | 170 | 8.0 | 13.0 | 0.00 | 0.00 | 0.00 | 59 | 1009.6 |
| 20260905193556 | 91 | 181 | 8.0 | 13.0 | 0.00 | 0.00 | 0.00 | 60 | 1009.8 |
| 20260905193054 | 91 | 161 | 5.0 | 11.0 | 0.00 | 0.00 | 0.00 | 59 | 1009.9 |
| 20260905192554 | 92 | 153 | 7.0 | 14.0 | 0.00 | 0.00 | 0.00 | 57 | 1010.0 |
| 20260905192053 | 92 | 156 | 8.0 | 14.0 | 0.00 | 0.00 | 0.00 | 57 | 1010.0 |